Weather in Sharnut

Russia / Republic of Kalmykia     47°39′59″N   43°46′32″E
temp.,
°C
wind,
m/s
gust,
m/s
humid.,
%
clouds,
%
prec.,
mm/h
press.,
hPa
HPBL,
m
18 april, sun
sun1800:00+9w338119 0.0 102125
03:00+7w22765 0.0 102110
06:00+8se11788 0.0 102010
09:00+13sse236377 0.0 1019599
12:00+16s3451100 0.1 10181847
15:00+16sse1252100 0.3 10171361
18:00+12wsw4575100 0.2 1017246
21:00+11wsw2383100 0.6 1017201
19 april, mon
mon1900:00+11ssw2386100 0.2 1017226
03:00+10s238993 0.2 1016155
06:00+10sw2494100 0.1 1016203
09:00+12wsw239099 0.2 1016402
12:00+13ssw3481100 0.1 1015662
15:00+15wsw3470100 0.2 1014891
18:00+15wnw1272100 0.1 1014207
21:00+13ne1178100 0.1 101411
20 april, tue
tue2000:00+13se3386100 0.0 101470
03:00+12sse3494100 0.0 1014158
06:00+12ese4798100 0.8 1012288
09:00+12se71296100 2.8 1011552
12:00+14ese101680100 0.5 1010809
15:00+18se111462100 0.7 10071077
18:00+17se9146299 0.1 1008751
21:00+14sse91775100 0.3 1010644
21 april, wed
wed2100:00+13sse71191100 0.6 1011338
03:00+12sw61088100 0.8 1013561
06:00+9sw5886100 0.0 1015669
09:00+12wsw576690 0.0 1017985
12:00+14w5558100 0.0 10171447
15:00+15wsw3552100 0.0 10181590
18:00+13w4664100 0.0 1019350
21:00+11wsw22744 0.0 102118
22 april, thu
thu2200:00+9w22785 0.0 102114
03:00+8nw227937 0.0 102219
06:00+9nw2282100 0.0 102315
09:00+13n1162100 0.0 1023609
12:00+16n114888 0.0 10231568
15:00+16wnw1146100 0.3 10221552
18:00+15sw2260100 0.4 102346
21:00+13wnw2264100 0.5 102315